Back to catalog

DELTA 1 DEB

AliveLEO
NORAD 10728·DEBRIS·🇺🇸 United States

Launched Apr 9, 1975 from Vandenberg Space Force Base

Loading…

Next Passes (next 24 hours)

TLE

FreshSource: Space-Track

Epoch: Sep 13, 2026, 23:25 UTC

1 10728U 75027C   26256.97595688 -.00000026  00000-0  64836-4 0  9997
2 10728 115.2076  91.5852 0029586 104.7422 255.6939 14.25337782667686

Track DELTA 1 DEB in real time with AllMySat

Download on the App Store